SL-14 R/B, 23793

Orbit data source: Space-Track

SL-14 R/B, 23793 is space debris in LEO originally from a launch on Mon, 19 Feb 1996 UTC launched from the Plesetsk Missile And Space Complex (PKMTR). Debris objects in space refer to the collection of defunct objects orbiting the Earth. Examples of debris include non-operational satellites, rocket bodies, and fragments generated from explosions, collisions, or faulty payload assembly.

Loading next visibility...
Identifier
23793, 1996-009G
Orbit
LEO
Country
Flag of CISCIS
Related business
Manufacturer
Yuzhnoe
Mission
Spacecraft
Bus & Motor
S5M, Unknown motor
Mass
1,600 kg wet, 1,600 kg dry
Launch date (UTC)
1996-02-19 (30 years ago)
Launch vehicle
Unknown
Launch site
Plesetsk Missile And Space Complex (PKMTR)
Object type
Payload
Rocket body
Debris
Shape & HBR
Cyl, 1.4 m
Radar Cross Section
7.351 m², Large (>1 m²)

Expand to show TLE details & history
Last TLE update: 18 hours ago

TLE from 18 hours ago
0 SL-14 R/B
1 23793U 96009G   25354.76908149  .00000004  00000-0 -36837-4 0  9997
2 23793  82.5692 161.0758 0045114   9.6629   2.5384 12.55090304366975
Epoch: 2025-12-20T18:27Z
TLE epoch observation values (Epoch: 2025-12-20T18:27:28.640Z)
Latitude
12.08079°
Longitude
156.20703°
Altitude
1,409.989 km
Speed
7.172 km/s
True Right ascension
10h 50m 40s
True Declination
12° 00' 59"
Sunlit
Object was in daylight at epoch
Visualization orbit readout
Latitude
Unknown
Longitude
Unknown
Altitude
Unknown
Speed
Unknown
Apparent Right ascension
Unknown
Apparent Declination
Unknown
Sunlit
N/A
Visualization observer readout
Local Sidereal Time
11:16:57
Azimuth
Unknown
Elevation
Unknown
Doppler factor
Unknown
Orbital elements
Apogee altitude
1,475.88 km
Perigee altitude
1,405.333 km
Semi-major axis
7,818.744 km
Eccentricity
0.00451
Inclination
82.5692°
RAAN
161.0758°
Arg. of periapsis
9.6629°
True anomaly
2.56143°
Mean anomaly
2.5384°
Eccentric anomaly
2.5499°
Mean motion
3.13934 °/min
Orbital period
114.67 mins
BSTAR
-0.000036837
Loading maneuver chart data...
Computing Atmospheric mass density...
Loading historical data...
Loading historical data...
Loading historical data...
Loading historical data...
Loading historical data...
Loading historical data...
Loading historical data...

Documentation

Showing up to 5 results
|